Home   Weather   Wittlich   Past weeks

Flag for Germany Past Weather in Wittlich, Rhineland-Palatinate, Germany — Yesterday and Last 2 Weeks

Now
41 °F

Sunny.


Feels Like: 41 °F
Forecast: 39 / 64 °F
Wind: No wind

Location: Spangdahlem

Current Time: Apr 29, 2017 at 9:40:50 am

Latest Report: Apr 29, 2017 at 8:58 am


Visibility: N/A

Pressure: 30.06 "Hg

Humidity: 81%

Dew Point: 36 °F

Location of WittlichLocation

Past Weather in Wittlich — Graph

°F

Wittlich Temperature Yesterday

Maximum temperature yesterday: 50 °F (at 2:34 pm)
Minimum temperature yesterday: 30 °F (at 6:58 am)
Average temperature yesterday: 43 °F

High & Low Weather Summary for the Past Weeks

 TemperatureHumidityPressure
High60 °F (Apr 24, 4:58 pm)93% (Apr 16, 7:58 am)30.60 "Hg (Apr 16, 7:58 am)
Low28 °F (Apr 20, 4:58 am)28% (Apr 20, 6:58 pm)29.68 "Hg (Apr 25, 4:58 am)
Average43 °F64%30.12 "Hg
* Reported Apr 14 7:11 am — Apr 29 7:58 am, Wittlich, Weather by CustomWeather, © 2017

Note: Actual official high and low records may vary slightly from our data, if they occured in-between our weather recording intervals... More about our weather records

Advertising

Wittlich Weather History for the Previous 24 Hours

Scroll right to see more
 ConditionsComfort  
Time TempWeatherWind HumidityBarometerVisibility
7:58 am
Sat, Apr 29
36 °FScattered clouds.No wind93%30.06 "HgN/A
7:36 am36 °FFog.No wind87%30.05 "Hg5 mi
6:58 am35 °FOvercast.No wind93%30.06 "HgN/A
6:09 am36 °FPassing clouds.No wind87%30.04 "HgN/A
5:58 am35 °FPassing clouds.No wind93%30.05 "HgN/A
5:12 am36 °FPassing clouds.5 mph93%30.04 "HgN/A
5:05 am36 °FPartly cloudy.5 mph93%30.04 "HgN/A
4:36 am36 °FPassing clouds.No wind93%30.04 "HgN/A
4:19 am37 °FFog.3 mph93%30.03 "Hg5 mi
3:58 am37 °FPassing clouds.5 mph93%30.03 "HgN/A
3:12 am39 °FPassing clouds.3 mph87%30.02 "HgN/A
2:58 am39 °FPassing clouds.3 mph91%30.03 "HgN/A
1:58 am40 °FPassing clouds.5 mph92%30.02 "HgN/A
12:58 am41 °FPassing clouds.3 mph87%30.03 "HgN/A
12:32 am41 °FMostly cloudy.5 mph93%30.02 "HgN/A
11:58 pm
Fri, Apr 28
43 °FOvercast.3 mph87%30.01 "HgN/A
11:20 pm41 °FPassing clouds.No wind87%30.01 "HgN/A
10:58 pm41 °FMostly cloudy.3 mph89%30.01 "HgN/A
10:39 pm41 °FMostly cloudy.5 mph87%30.01 "HgN/A
9:58 pm42 °FOvercast.5 mph87%30.00 "HgN/A
9:43 pm41 °FOvercast.3 mph93%30.00 "HgN/A
9:12 pm43 °FOvercast.5 mph87%30.00 "HgN/A
9:07 pm43 °FPassing clouds.5 mph87%29.99 "HgN/A
8:34 pm43 °FDrizzle. Broken clouds.8 mph87%29.99 "HgN/A
8:03 pm45 °FLight rain. Mostly cloudy.9 mph81%29.98 "HgN/A
6:58 pm46 °FPassing clouds.8 mph75%29.98 "HgN/A
6:36 pm46 °FPartly sunny.10 mph76%29.97 "HgN/A
6:00 pm46 °FLight rain. Mostly cloudy.12 mph71%29.97 "HgN/A
5:58 pm47 °FCloudy.10 mph67%29.98 "HgN/A
4:58 pm46 °FScattered clouds.12 mph71%29.97 "HgN/A
4:36 pm48 °FBroken clouds.15 mph66%29.96 "HgN/A
4:09 pm48 °FPartly sunny.13 mph58%29.95 "HgN/A
4:07 pm48 °FBroken clouds.15 mph58%29.95 "HgN/A
3:37 pm50 °FPartly sunny.10 mph54%29.95 "HgN/A
3:18 pm48 °FPartly sunny.8 mph58%29.95 "HgN/A
3:06 pm48 °FBroken clouds.6 mph62%29.95 "HgN/A
2:34 pm50 °FScattered clouds.9 mph58%29.95 "HgN/A
2:22 pm48 °FMostly cloudy.10 mph62%29.95 "HgN/A
1:58 pm46 °FMore clouds than sun.8 mph66%29.96 "HgN/A
1:43 pm45 °FMostly cloudy.12 mph66%29.95 "HgN/A
1:36 pm45 °FMore clouds than sun.10 mph66%29.95 "HgN/A
1:03 pm46 °FPartly sunny.10 mph57%29.95 "HgN/A
12:58 pm46 °FPartly sunny.9 mph57%29.96 "HgN/A
12:44 pm46 °FBroken clouds.7 mph57%29.95 "HgN/A
12:34 pm46 °FBroken clouds.9 mph57%29.95 "HgN/A
11:58 am46 °FPartly sunny.9 mph57%29.95 "HgN/A
11:41 am46 °FBroken clouds.8 mph57%29.95 "HgN/A
11:12 am45 °FBroken clouds.9 mph57%29.95 "HgN/A
10:59 am45 °FPartly sunny.9 mph57%29.95 "HgN/A
10:31 am46 °FPartly sunny.7 mph57%29.95 "HgN/A
9:58 am42 °FPassing clouds.6 mph66%29.96 "HgN/A
Weather by CustomWeather, © 2017

See weather overviewHow to use our weather pages